Weather Roundup
Issued by NWS

Home | Current Version | Previous Version | Graphics & Text | Print | Product List | Glossary Off
Versions: 1 2 3 4 5 6 7 8 9 10 11 12 13 14 15 16 17 18 19 20 21 22 23 24 25 26 27 28 29 30 31 32 33 34 35 36 37 38 39 40 41 42 43 44 45 46 47 48 49 50

000
NZUS93 KARX 292310
HRRWXR

CURRENT HOURLY OBSERVATIONS ACROSS
MUCH OF THE UPPER MISSISSIPPI VALLEY
NATIONAL WEATHER SERVICE LA CROSSE WI
600 PM CDT WED JUL 29 2015


...SOUTHEAST MINNESOTA...


CITY           SKY/WX    TMP DP  RH WIND       PRES   REMARKS
ROCHESTER      SUNNY     78  55  44 W18G28    30.01S
ROCHESTER/MAYO FAIR      79  51  37 W20G35    29.99R
WINONA         SUNNY     81  50  34 W17       29.96S
AUSTIN         SUNNY     81  54  39 W14G20    30.03S
ALBERT LEA     SUNNY     81  55  41 W10G18    30.03S
DODGE CENTER   SUNNY     79  52  38 W16G23    30.01S
PRESTON        SUNNY     78  53  42 W17G25    30.03R
OWATONNA       SUNNY     79  54  41 W20G25    30.00S
FARIBAULT      SUNNY     79  54  41 W17G25    29.99S
$$

...ELSEWHERE IN MINNESOTA...


CITY           SKY/WX    TMP DP  RH WIND       PRES   REMARKS
MINNEAPOLIS    MOSUNNY   82  53  36 W23G36    29.94R
INTNL FALLS    PTSUNNY   74  56  53 W14G28    29.71S
DULUTH         MOSUNNY   78  54  43 W24G30    29.81R
RED WING       SUNNY     82  50  32 W18G24    29.93S
REDWOOD FALLS  SUNNY     82  54  37 W13G24    30.00S
MANKATO        SUNNY     81  54  39 W15G28    30.00S
WORTHINGTON    SUNNY     81  55  41 W13       30.08S
FAIRMONT       SUNNY     82  52  34 W17       30.04S
$$

...SOUTHWEST WISCONSIN...


CITY           SKY/WX    TMP DP  RH WIND       PRES   REMARKS
LA CROSSE      SUNNY     83  52  34 W23G36    29.95S
PRAIRIE DU CHI SUNNY     83  46  27 W12G29    29.99S
BOSCOBEL       SUNNY     85  53  33 W8G18     29.98S
LONE ROCK      SUNNY     83  50  31 W17G33    29.96F
PLATTEVILLE    SUNNY     81  55  40 W14G21    30.01S
FORT MC COY    SUNNY     82  49  32 W16       29.95S
CAMP DOUGLAS   MOSUNNY   81  55  41 W22G29    29.93S
VIROQUA        FAIR      79  51  38 W10G25    30.00R
WIS DELLS      SUNNY     82  45  27 W17G28    29.95R
$$

...ELSEWHERE IN WISCONSIN...


CITY           SKY/WX    TMP DP  RH WIND       PRES   REMARKS
MILWAUKEE      MOSUNNY   84  49  29 W18G26    29.92R
MADISON        MOSUNNY   82  51  34 W13G23    29.94S
GREEN BAY      SUNNY     83  54  36 W22G29    29.86R
EAU CLAIRE     MOSUNNY   80  55  42 W21G28    29.91R
BLACK RVR FLS  FAIR      82  49  31 W18       29.94R
MEDFORD        PTSUNNY   76  54  45 W14G28    29.91S
WAUSAU         MOSUNNY   80  52  37 W20G32    29.88R
WIS RAPIDS     MOSUNNY   82  50  32 NW18G29   29.93R
MARSHFIELD     SUNNY     79  51  37 W20G32    29.91S
RICE LAKE      MOSUNNY   78  51  39 W15G28    29.91S
$$

...NORTHEAST IOWA...


CITY           SKY/WX    TMP DP  RH WIND       PRES   REMARKS
DECORAH        SUNNY     79  54  41 W8G17     30.01S
MASON CITY     SUNNY     81  57  43 W18       30.07R
CHARLES CITY   SUNNY     79  55  44 W13G23    30.05S
OELWEIN        SUNNY     81  59  47 W13       30.05S
$$

...ELSEWHERE IN IOWA...


CITY           SKY/WX    TMP DP  RH WIND       PRES   REMARKS
DES MOINES     MOSUNNY   84  52  33 NW13      30.10S
IOWA CITY      SUNNY     83  58  42 W13       30.06F
FORT DODGE     SUNNY     81  57  44 W9G16     30.10S
$$

...NORTHERN ILLINOIS...


CITY           SKY/WX    TMP DP  RH WIND       PRES   REMARKS
CHICAGO-OHARE  MOSUNNY   84  52  33 W15G21    29.96S
CHICAGO-MIDWAY MOSUNNY   86  52  30 W16       29.96S
MOLINE         SUNNY     83  57  41 W15       30.03F
ROCKFORD       MOSUNNY   83  55  38 W14       30.00S
PEORIA         SUNNY     84  57  39 NW7       30.05S
$$

NOTE: "FAIR" INDICATES FEW OR NO CLOUDS BELOW 12,000 FEET WITH NO
SIGNIFICANT WEATHER AND/OR OBSTRUCTIONS TO VISIBILITY. WIND
SPEEDS ARE IN MILES-PER-HOUR.



USA.gov is the U.S. government's official web portal to all federal, state and local government web resources and services.